User: anonymous   Login
Location: Unspecified
(0.0000°N, 0.0000°E)
Time: 15:28:15
(UTC+00:00)
Language:

CZ-11 R/B - Orbit

View from above orbital plane
View from above orbital plane
View from above satellite
View from above satellite

Ground track
Ground track

The orbit data is extracted from the following two-line orbital elements,

1 41847U 16066G   21330.92155196  .00000168  00000-0  34502-4 0  9993
2 41847  98.5812  30.5582 0366020  95.2935 269.0119 14.38290513265234
Epoch (UTC): 26 November 2021 22:07:02
Eccentricity: 0.0366020
inclination: 98.5812°
perigee height: 503 km
apogee height: 1025 km
right ascension of ascending node: 30.5582°
argument of perigee: 95.2935°
revolutions per day: 14.38290513
mean anomaly at epoch: 269.0119°
orbit number at epoch: 26523

The dashed part of the orbit path shows where the satellite is in the earth's shadow,  

DLR